Weather History for Phoenix Deer Valley, AZ

Change the Weather History Date:

Thursday, March 7, 2013

  Actual Average Record
Temperature  
Mean Temperature 60 °F -  
Max Temperature 73 °F 70 °F 84 °F (2004)
Min Temperature 48 °F 47 °F 41 °F (1998)
Degree Days  
Heating Degree Days 4    
Growing Degree Days 10 (Base 50)    
Moisture  
Dew Point 32 °F    
Average Humidity 33    
Maximum Humidity 54    
Minimum Humidity 19    
Precipitation  
Precipitation 0.00 in - - ()
Sea Level Pressure  
Sea Level Pressure 29.85 in    
Wind  
Wind Speed 4 mph (SSE)    
Max Wind Speed 10 mph    
Max Gust Speed 16 mph    
Visibility 10 miles    
Events      
Averages and records for this station are not official NWS values.
T = Trace of Precipitation, MM = Missing Value Source: NWS Daily Summary

Daily Weather History Graph

Daily Weather History Graph

Search for Another Location

Airport:

Trip Planner

Search our weather history database for the weather conditions in past years. The results will help you decide how hot, cold, wet, or windy it might be!

Date:

Astronomy

Mar. 07, 2013 Rise Set
Actual Time 6:48 AM MST 6:30 PM MST
Civil Twilight 6:23 AM MST 6:54 PM MST
Nautical Twilight 5:55 AM MST 7:23 PM MST
Astronomical Twilight 5:26 AM MST 7:52 PM MST
Moon 3:41 AM MST (3/7) 2:31 PM MST (3/7)
Length of Visible Light 12h 31m
Length of Day
11h 41m
Waning Crescent, 19% of the Moon is Illuminated
Mar 7
Waning Crescent
Mar 11
New
Mar 19
First Quarter
Mar 27
Full
Apr 2
Last Quarter

Hourly Weather History & Observations

Time (MST) Temp. Dew Point Humidity Pressure Visibility Wind Dir Wind Speed Gust Speed Precip Events Conditions
12:53 AM 57.9 °F 30.9 °F 36% 29.85 in 10.0 mi North 4.6 mph - N/A   Clear
1:53 AM 55.0 °F 32.0 °F 42% 29.85 in 10.0 mi ESE 3.5 mph - N/A   Clear
2:53 AM 57.0 °F 33.1 °F 40% 29.83 in 10.0 mi East 3.5 mph - N/A   Clear
3:53 AM 51.1 °F 33.1 °F 50% 29.83 in 10.0 mi Calm Calm - N/A   Clear
4:53 AM 50.0 °F 33.1 °F 52% 29.84 in 10.0 mi Calm Calm - N/A   Clear
5:53 AM 48.9 °F 33.1 °F 54% 29.87 in 10.0 mi Calm Calm - N/A   Clear
6:53 AM 50.0 °F 33.1 °F 52% 29.88 in 10.0 mi East 5.8 mph - N/A   Clear
7:53 AM 57.0 °F 33.1 °F 40% 29.90 in 10.0 mi East 5.8 mph - N/A   Clear
8:53 AM 61.0 °F 35.1 °F 38% 29.91 in 10.0 mi ESE 8.1 mph - N/A   Clear
9:53 AM 64.9 °F 33.1 °F 31% 29.91 in 10.0 mi ESE 6.9 mph - N/A   Clear
10:53 AM 66.9 °F 32.0 °F 27% 29.92 in 10.0 mi Calm Calm - N/A   Clear
11:53 AM 68.0 °F 30.9 °F 25% 29.91 in 10.0 mi Calm Calm - N/A   Clear
12:53 PM 71.1 °F 34.0 °F 26% 29.88 in 10.0 mi WSW 4.6 mph - N/A   Clear
1:53 PM 72.0 °F 30.9 °F 22% 29.85 in 10.0 mi South 8.1 mph 16.1 mph N/A   Clear
2:53 PM 73.0 °F 28.9 °F 20% 29.83 in 10.0 mi South 10.4 mph - N/A   Clear
3:53 PM 73.9 °F 28.9 °F 19% 29.82 in 10.0 mi SSW 10.4 mph - N/A   Clear
4:53 PM 73.9 °F 28.9 °F 19% 29.82 in 10.0 mi SW 10.4 mph - N/A   Clear
5:53 PM 72.0 °F 28.9 °F 20% 29.81 in 10.0 mi WSW 4.6 mph - N/A   Clear
6:53 PM 68.0 °F 28.0 °F 22% 29.81 in 10.0 mi West 4.6 mph - N/A   Clear
7:53 PM 66.9 °F 28.0 °F 23% 29.82 in 10.0 mi Calm Calm - N/A   Scattered Clouds
8:53 PM 64.0 °F 28.9 °F 27% 29.81 in 10.0 mi Calm Calm - N/A   Partly Cloudy
9:53 PM 63.0 °F 30.9 °F 30% 29.81 in 10.0 mi East 3.5 mph - N/A   Mostly Cloudy
10:53 PM 60.1 °F 33.1 °F 36% 29.81 in 10.0 mi Calm Calm - N/A   Clear
11:53 PM 57.9 °F 35.1 °F 42% 29.81 in 10.0 mi SE 4.6 mph - N/A   Clear